Timestamp, Local Timestamp, ID, PM25, PM10, Co2, Temperature, Relative Humidity, Monitor ID, O3
2023-11-13T14:43:01Z,11/13/23 09:43,10929118,0.6599999999999999,0.0,836,20.3,41.7,70,7.0
2023-11-13T14:44:01Z,11/13/23 09:44,10929121,0.389,0.004,829,20.5,41.5,70,6.0
2023-11-13T14:45:01Z,11/13/23 09:45,10929124,0.747,0.0,828,20.7,41.3,70,7.0
2023-11-13T14:46:01Z,11/13/23 09:46,10929127,1.09,0.002,834,20.8,41.1,70,7.0
2023-11-13T14:47:01Z,11/13/23 09:47,10929130,0.968,0.001,842,20.9,41.0,70,7.0
2023-11-13T14:48:01Z,11/13/23 09:48,10929133,0.5700000000000001,0.0,848,21.1,40.8,70,7.0
2023-11-13T14:49:01Z,11/13/23 09:49,10929136,0.42800000000000005,0.001,865,21.2,40.7,70,8.0
2023-11-13T14:50:01Z,11/13/23 09:50,10929139,0.357,0.0,860,21.4,40.6,70,6.0
2023-11-13T14:51:01Z,11/13/23 09:51,10929142,0.5589999999999999,0.002,873,21.5,40.4,70,8.0
2023-11-13T14:52:01Z,11/13/23 09:52,10929145,0.32799999999999996,0.002,875,21.6,40.3,70,8.0
2023-11-13T14:53:01Z,11/13/23 09:53,10929148,0.396,0.0,872,21.6,40.2,70,6.0
2023-11-13T14:54:01Z,11/13/23 09:54,10929151,0.43099999999999994,0.001,876,21.7,40.1,70,8.0
2023-11-13T14:55:01Z,11/13/23 09:55,10929154,0.333,0.0,874,21.8,40.0,70,8.0
2023-11-13T14:56:01Z,11/13/23 09:56,10929157,0.32,0.001,877,21.9,39.9,70,7.0
2023-11-13T14:57:01Z,11/13/23 09:57,10929160,0.352,0.002,883,22.0,39.8,70,9.0
2023-11-13T14:58:01Z,11/13/23 09:58,10929163,0.465,0.0,884,22.1,39.7,70,8.0
2023-11-13T14:59:01Z,11/13/23 09:59,10929166,0.377,0.001,884,22.1,39.6,70,8.0
2023-11-13T15:00:01Z,11/13/23 10:00,10929169,0.363,0.0,881,22.2,39.5,70,8.0
2023-11-13T15:01:01Z,11/13/23 10:01,10929172,0.365,0.001,890,22.2,39.4,70,8.0
2023-11-13T15:02:01Z,11/13/23 10:02,10929175,0.331,0.002,884,22.3,39.3,70,8.0
2023-11-13T15:03:01Z,11/13/23 10:03,10929178,0.365,0.001,896,22.3,39.4,70,9.0
2023-11-13T15:04:01Z,11/13/23 10:04,10929181,0.325,0.002,905,22.3,39.3,70,8.0
2023-11-13T15:05:01Z,11/13/23 10:05,10929184,0.366,0.0,917,22.4,39.2,70,9.0
2023-11-13T15:06:01Z,11/13/23 10:06,10929187,0.51,0.0,915,22.4,39.2,70,7.0
2023-11-13T15:07:01Z,11/13/23 10:07,10929190,0.42000000000000004,0.0,904,22.5,39.1,70,9.0
2023-11-13T15:08:01Z,11/13/23 10:08,10929193,0.488,0.001,925,22.5,39.0,70,9.0
2023-11-13T15:09:01Z,11/13/23 10:09,10929196,0.477,0.0,918,22.6,38.9,70,8.0
2023-11-13T15:10:01Z,11/13/23 10:10,10929199,0.48600000000000004,0.0,925,22.6,38.8,70,9.0
2023-11-13T15:11:01Z,11/13/23 10:11,10929202,0.5,0.001,929,22.7,38.8,70,8.0
2023-11-13T15:12:01Z,11/13/23 10:12,10929205,0.572,0.001,926,22.7,38.8,70,9.0
2023-11-13T15:13:01Z,11/13/23 10:13,10929208,0.40599999999999997,0.002,922,22.7,38.7,70,9.0
2023-11-13T15:14:01Z,11/13/23 10:14,10929211,0.5519999999999999,0.0,928,22.7,38.6,70,9.0
2023-11-13T15:15:01Z,11/13/23 10:15,10929214,0.375,0.0,917,22.8,38.6,70,9.0
2023-11-13T15:16:01Z,11/13/23 10:16,10929217,0.489,0.0,919,22.8,38.5,70,9.0
2023-11-13T15:17:01Z,11/13/23 10:17,10929220,0.42800000000000005,0.001,910,22.8,38.4,70,9.0
2023-11-13T15:18:01Z,11/13/23 10:18,10929223,0.42699999999999994,0.002,919,22.8,38.4,70,9.0
2023-11-13T15:19:01Z,11/13/23 10:19,10929226,0.41,0.001,908,22.8,38.3,70,8.0
2023-11-13T15:20:01Z,11/13/23 10:20,10929229,0.501,0.0,907,22.8,38.3,70,9.0
2023-11-13T15:21:01Z,11/13/23 10:21,10929232,0.489,0.0,904,22.9,38.3,70,9.0
2023-11-13T15:22:01Z,11/13/23 10:22,10929235,0.47400000000000003,0.0,895,22.9,38.2,70,10.0
2023-11-13T15:23:01Z,11/13/23 10:23,10929238,0.42800000000000005,0.004,893,22.9,38.1,70,9.0
2023-11-13T15:24:01Z,11/13/23 10:24,10929241,0.28700000000000003,0.001,893,22.9,38.1,70,9.0
2023-11-13T15:25:01Z,11/13/23 10:25,10929244,0.348,0.0,884,22.9,38.0,70,10.0
2023-11-13T15:26:01Z,11/13/23 10:26,10929247,0.255,0.0,881,22.9,38.0,70,10.0
2023-11-13T15:27:01Z,11/13/23 10:27,10929250,0.41,0.001,895,22.9,37.9,70,10.0
2023-11-13T15:28:01Z,11/13/23 10:28,10929253,0.317,0.001,888,22.9,37.9,70,9.0
2023-11-13T15:29:01Z,11/13/23 10:29,10929256,0.34199999999999997,0.0,893,22.9,37.9,70,10.0
2023-11-13T15:30:01Z,11/13/23 10:30,10929259,0.453,0.003,893,22.9,37.9,70,9.0
2023-11-13T15:31:01Z,11/13/23 10:31,10929262,0.34900000000000003,0.002,900,22.9,37.9,70,9.0
2023-11-13T15:32:01Z,11/13/23 10:32,10929265,0.381,0.0,936,22.9,37.9,70,9.0
2023-11-13T15:33:01Z,11/13/23 10:33,10929268,0.34199999999999997,0.0,933,22.9,37.8,70,9.0
2023-11-13T15:34:01Z,11/13/23 10:34,10929271,0.42800000000000005,0.001,916,22.9,37.8,70,9.0
2023-11-13T15:35:01Z,11/13/23 10:35,10929274,0.32599999999999996,0.001,912,22.9,37.8,70,9.0
2023-11-13T15:36:01Z,11/13/23 10:36,10929277,0.357,0.0,901,22.9,38.0,70,9.0
2023-11-13T15:37:01Z,11/13/23 10:37,10929280,0.398,0.001,905,23.0,37.8,70,9.0
2023-11-13T15:38:01Z,11/13/23 10:38,10929283,0.41900000000000004,0.001,901,23.0,37.8,70,10.0
2023-11-13T15:39:01Z,11/13/23 10:39,10929286,0.354,0.0,896,23.0,37.7,70,10.0
2023-11-13T15:40:01Z,11/13/23 10:40,10929289,0.414,0.0,901,23.0,37.7,70,9.0
2023-11-13T15:41:01Z,11/13/23 10:41,10929292,0.354,0.0,891,23.0,37.7,70,10.0
2023-11-13T15:42:01Z,11/13/23 10:42,10929295,0.24900000000000003,0.0,885,23.0,37.7,70,9.0
2023-11-13T15:43:01Z,11/13/23 10:43,10929298,0.396,0.0,880,23.0,37.6,70,9.0
2023-11-13T15:44:01Z,11/13/23 10:44,10929301,0.633,0.0,891,23.0,37.6,70,10.0
2023-11-13T15:45:01Z,11/13/23 10:45,10929304,0.519,0.0,885,23.0,37.5,70,10.0
2023-11-13T15:46:01Z,11/13/23 10:46,10929307,0.231,0.0,882,23.0,37.5,70,10.0
2023-11-13T15:47:01Z,11/13/23 10:47,10929310,0.378,0.0,887,23.0,37.5,70,10.0
2023-11-13T15:48:01Z,11/13/23 10:48,10929313,0.33999999999999997,0.002,889,23.0,37.5,70,9.0
2023-11-13T15:49:01Z,11/13/23 10:49,10929316,0.32799999999999996,0.002,891,23.0,37.5,70,10.0
2023-11-13T15:50:01Z,11/13/23 10:50,10929319,0.225,0.0,889,23.0,37.5,70,9.0
2023-11-13T15:51:01Z,11/13/23 10:51,10929322,0.495,0.0,885,23.0,37.5,70,10.0
2023-11-13T15:52:01Z,11/13/23 10:52,10929325,0.438,0.0,887,23.0,37.5,70,10.0
2023-11-13T15:53:01Z,11/13/23 10:53,10929328,0.314,0.001,887,23.0,37.5,70,10.0
2023-11-13T15:54:01Z,11/13/23 10:54,10929331,0.28300000000000003,0.002,871,23.0,37.5,70,9.0
2023-11-13T15:55:01Z,11/13/23 10:55,10929334,0.33599999999999997,0.0,877,23.0,37.5,70,10.0
2023-11-13T16:30:01Z,11/13/23 11:30,10929339,0.192,0.0,810,23.3,36.9,70,12.0
2023-11-13T16:31:01Z,11/13/23 11:31,10929342,0.156,0.0,810,23.3,36.9,70,11.0
2023-11-13T16:32:01Z,11/13/23 11:32,10929345,0.509,0.001,810,23.3,36.8,70,12.0
2023-11-13T16:33:01Z,11/13/23 11:33,10929348,0.507,0.0,805,23.3,36.8,70,11.0
2023-11-13T16:34:01Z,11/13/23 11:34,10929351,0.327,0.0,808,23.3,36.8,70,11.0
2023-11-13T16:35:01Z,11/13/23 11:35,10929354,0.609,0.0,803,23.3,36.8,70,11.0
2023-11-13T16:36:01Z,11/13/23 11:36,10929357,0.669,0.0,795,23.3,36.7,70,11.0
2023-11-13T16:37:01Z,11/13/23 11:37,10929360,0.337,0.002,795,23.3,36.7,70,11.0
2023-11-13T16:38:01Z,11/13/23 11:38,10929363,0.755,0.001,781,23.3,36.6,70,11.0
2023-11-13T16:42:00Z,11/13/23 11:42,10929372,0.414,0.0,780,23.3,36.6,70,12.0
2023-11-13T16:43:00Z,11/13/23 11:43,10929375,0.40499999999999997,0.0,775,23.3,36.5,70,12.0
2023-11-13T16:44:00Z,11/13/23 11:44,10929378,0.807,0.0,763,23.3,36.4,70,12.0
2023-11-13T16:45:00Z,11/13/23 11:45,10929381,0.771,0.0,760,23.3,36.4,70,12.0
2023-11-13T16:46:00Z,11/13/23 11:46,10929384,0.924,0.0,751,23.2,36.3,70,12.0
2023-11-13T16:47:00Z,11/13/23 11:47,10929387,0.426,0.0,745,23.2,36.3,70,13.0
2023-11-13T16:48:00Z,11/13/23 11:48,10929390,0.21600000000000003,0.0,730,23.2,36.2,70,12.0
2023-11-13T16:49:00Z,11/13/23 11:49,10929393,0.254,0.001,722,23.2,36.1,70,13.0
2023-11-13T16:50:00Z,11/13/23 11:50,10929396,0.132,0.0,722,23.2,36.1,70,13.0
2023-11-13T16:51:00Z,11/13/23 11:51,10929399,0.17099999999999999,0.0,719,23.2,36.0,70,14.0
2023-11-13T20:46:00Z,11/13/23 15:46,10929404,0.288,0.0,448,23.1,26.5,70,23.0
2023-11-13T20:47:00Z,11/13/23 15:47,10929407,0.233,0.001,452,23.0,26.5,70,22.0
2023-11-13T20:48:00Z,11/13/23 15:48,10929410,0.183,0.0,457,23.0,26.5,70,23.0
2023-11-13T20:49:00Z,11/13/23 15:49,10929413,0.207,0.0,453,23.0,26.5,70,22.0
2023-11-13T20:50:00Z,11/13/23 15:50,10929416,0.386,0.001,454,23.0,26.5,70,22.0
2023-11-13T20:51:00Z,11/13/23 15:51,10929419,0.524,0.001,453,23.0,26.5,70,22.0
2023-11-13T20:52:00Z,11/13/23 15:52,10929422,0.29100000000000004,0.0,446,23.0,26.5,70,22.0
2023-11-13T20:53:00Z,11/13/23 15:53,10929425,0.198,0.0,461,22.9,26.5,70,22.0
2023-11-13T20:54:00Z,11/13/23 15:54,10929428,0.123,0.0,454,22.9,26.5,70,23.0
2023-11-13T20:55:00Z,11/13/23 15:55,10929431,0.306,0.0,457,22.9,26.5,70,22.0
2023-11-13T20:56:00Z,11/13/23 15:56,10929434,0.27,0.0,455,22.9,26.6,70,23.0
2023-11-13T20:57:00Z,11/13/23 15:57,10929437,0.16399999999999998,0.001,452,22.9,26.6,70,22.0
2023-11-13T20:58:00Z,11/13/23 15:58,10929440,0.141,0.0,460,22.9,26.6,70,22.0
2023-11-13T20:59:00Z,11/13/23 15:59,10929443,0.318,0.0,456,22.8,26.6,70,22.0
2023-11-13T21:00:00Z,11/13/23 16:00,10929446,0.10200000000000001,0.0,460,22.8,26.6,70,23.0
2023-11-13T21:01:00Z,11/13/23 16:01,10929449,0.174,0.0,454,22.8,26.7,70,23.0
2023-11-13T21:02:00Z,11/13/23 16:02,10929452,0.16499999999999998,0.0,466,22.8,26.7,70,22.0
2023-11-13T21:03:00Z,11/13/23 16:03,10929455,0.123,0.0,465,22.7,26.7,70,23.0
2023-11-13T21:04:00Z,11/13/23 16:04,10929458,0.16499999999999998,0.0,460,22.7,26.7,70,22.0
2023-11-13T21:05:00Z,11/13/23 16:05,10929461,0.06899999999999999,0.0,465,22.7,26.7,70,23.0
2023-11-13T21:06:00Z,11/13/23 16:06,10929464,0.147,0.0,456,22.7,26.7,70,23.0
2023-11-13T21:07:00Z,11/13/23 16:07,10929467,0.123,0.0,457,22.6,26.7,70,22.0
2023-11-13T21:08:00Z,11/13/23 16:08,10929470,0.135,0.0,457,22.6,26.7,70,23.0
2023-11-13T21:09:00Z,11/13/23 16:09,10929473,0.123,0.0,461,22.6,26.7,70,24.0
2023-11-13T21:10:00Z,11/13/23 16:10,10929476,0.09,0.0,461,22.6,26.7,70,23.0
2023-11-13T21:11:00Z,11/13/23 16:11,10929479,0.135,0.0,464,22.6,26.7,70,23.0
2023-11-13T21:12:00Z,11/13/23 16:12,10929482,0.162,0.0,451,22.5,26.7,70,23.0
2023-11-13T21:13:00Z,11/13/23 16:13,10929485,0.137,0.001,452,22.5,26.6,70,24.0
2023-11-13T21:14:00Z,11/13/23 16:14,10929488,0.141,0.0,448,22.4,26.6,70,23.0
2023-11-13T21:15:00Z,11/13/23 16:15,10929491,0.10200000000000001,0.0,446,22.4,26.6,70,24.0
2023-11-13T21:16:00Z,11/13/23 16:16,10929494,0.16499999999999998,0.0,442,22.3,26.6,70,24.0
2023-11-13T21:17:00Z,11/13/23 16:17,10929497,0.189,0.0,444,22.3,26.6,70,24.0
2023-11-13T21:18:00Z,11/13/23 16:18,10929500,0.438,0.0,441,22.3,26.6,70,25.0
2023-11-13T21:19:00Z,11/13/23 16:19,10929503,0.786,0.0,436,22.3,26.7,70,25.0
2023-11-13T21:20:00Z,11/13/23 16:20,10929506,1.077,0.0,440,22.3,26.7,70,24.0
2023-11-13T21:21:00Z,11/13/23 16:21,10929509,1.221,0.0,437,22.2,26.7,70,25.0
2023-11-13T21:22:00Z,11/13/23 16:22,10929512,1.296,0.0,440,22.2,26.7,70,25.0
2023-11-13T21:23:00Z,11/13/23 16:23,10929515,1.827,0.0,432,22.2,26.7,70,25.0
2023-11-13T21:24:00Z,11/13/23 16:24,10929518,1.415,0.001,435,22.1,26.8,70,25.0
2023-11-13T21:25:00Z,11/13/23 16:25,10929521,0.8550000000000001,0.0,440,22.1,26.8,70,26.0
2023-11-13T21:26:00Z,11/13/23 16:26,10929524,1.029,0.0,440,22.1,26.8,70,25.0
2023-11-13T21:27:00Z,11/13/23 16:27,10929527,1.115,0.001,436,22.1,26.8,70,24.0
2023-11-13T21:28:00Z,11/13/23 16:28,10929530,0.642,0.0,438,22.1,26.8,70,23.0
2023-11-13T21:29:00Z,11/13/23 16:29,10929533,0.413,0.001,437,22.0,26.8,70,22.0
2023-11-13T21:30:00Z,11/13/23 16:30,10929536,0.5820000000000001,0.0,433,22.0,26.9,70,22.0
2023-11-13T21:31:00Z,11/13/23 16:31,10929539,0.712,0.002,442,22.0,26.9,70,21.0
2023-11-13T21:32:00Z,11/13/23 16:32,10929542,0.462,0.0,442,22.1,27.0,70,21.0
2023-11-13T21:33:00Z,11/13/23 16:33,10929545,0.41600000000000004,0.001,436,22.1,27.0,70,20.0
2023-11-13T21:34:00Z,11/13/23 16:34,10929548,0.29700000000000004,0.0,443,22.1,27.0,70,19.0
2023-11-13T21:35:00Z,11/13/23 16:35,10929551,0.333,0.0,440,22.1,27.0,70,19.0
2023-11-13T21:36:00Z,11/13/23 16:36,10929554,0.20400000000000001,0.0,443,22.1,27.1,70,19.0
2023-11-13T21:37:00Z,11/13/23 16:37,10929557,0.123,0.0,440,22.1,27.1,70,18.0
2023-11-13T21:38:00Z,11/13/23 16:38,10929560,0.20099999999999998,0.0,454,22.1,27.2,70,18.0
2023-11-13T21:39:00Z,11/13/23 16:39,10929563,0.144,0.0,442,22.2,27.2,70,18.0
2023-11-13T21:40:00Z,11/13/23 16:40,10929566,0.122,0.001,445,22.2,27.3,70,17.0
2023-11-13T21:41:00Z,11/13/23 16:41,10929569,0.159,0.0,442,22.3,27.3,70,17.0
2023-11-13T21:42:00Z,11/13/23 16:42,10929572,0.10800000000000001,0.0,436,22.3,27.3,70,17.0
2023-11-13T21:43:00Z,11/13/23 16:43,10929575,0.11100000000000002,0.0,440,22.3,27.3,70,17.0
2023-11-13T21:44:00Z,11/13/23 16:44,10929578,0.149,0.001,442,22.3,27.4,70,16.0
2023-11-13T21:45:00Z,11/13/23 16:45,10929581,0.10500000000000001,0.0,448,22.3,27.4,70,16.0
2023-11-13T21:46:00Z,11/13/23 16:46,10929584,0.126,0.0,447,22.4,27.4,70,16.0
2023-11-13T21:47:00Z,11/13/23 16:47,10929587,0.135,0.0,452,22.4,27.4,70,15.0
2023-11-13T21:48:00Z,11/13/23 16:48,10929590,0.121,0.002,444,22.5,27.4,70,15.0
2023-11-13T21:49:00Z,11/13/23 16:49,10929593,0.129,0.0,447,22.5,27.4,70,3.0
2023-11-13T21:50:00Z,11/13/23 16:50,10929596,0.129,0.0,442,22.6,27.4,70,14.0
2023-11-13T21:51:00Z,11/13/23 16:51,10929599,0.252,0.0,443,22.6,27.4,70,15.0
2023-11-13T21:52:00Z,11/13/23 16:52,10929602,0.21000000000000002,0.0,446,22.6,27.4,70,14.0
2023-11-13T21:53:00Z,11/13/23 16:53,10929605,0.159,0.0,448,22.7,27.4,70,14.0
2023-11-13T21:54:00Z,11/13/23 16:54,10929608,0.192,0.0,449,22.7,27.4,70,14.0
2023-11-13T21:55:00Z,11/13/23 16:55,10929610,0.192,0.0,445,22.8,27.4,70,14.0
2023-11-13T21:56:00Z,11/13/23 16:56,10929612,0.23700000000000002,0.0,447,22.8,27.4,70,14.0
2023-11-13T21:57:00Z,11/13/23 16:57,10929614,0.129,0.0,458,22.8,27.4,70,14.0
2023-11-13T21:58:00Z,11/13/23 16:58,10929616,0.185,0.001,453,22.9,27.4,70,14.0
2023-11-13T21:59:00Z,11/13/23 16:59,10929618,0.10500000000000001,0.0,456,22.9,27.4,70,14.0
2023-11-13T22:00:00Z,11/13/23 17:00,10929620,0.147,0.0,449,22.9,27.4,70,14.0
2023-11-13T22:01:00Z,11/13/23 17:01,10929622,0.066,0.0,454,22.9,27.5,70,2.0
2023-11-13T22:02:00Z,11/13/23 17:02,10929624,0.087,0.0,456,22.9,27.5,70,13.0
2023-11-13T22:03:00Z,11/13/23 17:03,10929626,0.08399999999999999,0.0,461,22.9,27.5,70,14.0
2023-11-13T22:04:00Z,11/13/23 17:04,10929628,0.11100000000000002,0.0,457,22.9,27.5,70,13.0
2023-11-13T22:05:00Z,11/13/23 17:05,10929631,0.093,0.0,459,22.9,27.5,70,13.0
2023-11-13T22:06:00Z,11/13/23 17:06,10929634,0.11100000000000002,0.0,457,22.9,27.6,70,13.0
2023-11-13T22:07:00Z,11/13/23 17:07,10929637,0.15,0.0,449,22.9,27.6,70,13.0
2023-11-13T22:08:00Z,11/13/23 17:08,10929640,0.099,0.0,452,22.9,27.7,70,13.0
2023-11-13T22:09:00Z,11/13/23 17:09,10929643,0.20400000000000001,0.0,444,22.9,27.8,70,13.0
2023-11-13T22:10:00Z,11/13/23 17:10,10929646,0.096,0.0,456,22.9,27.8,70,12.0
2023-11-13T22:11:00Z,11/13/23 17:11,10929649,0.129,0.0,453,22.9,27.9,70,13.0
2023-11-13T22:12:00Z,11/13/23 17:12,10929652,0.20099999999999998,0.0,464,22.8,27.9,70,12.0
2023-11-13T22:13:00Z,11/13/23 17:13,10929655,0.08399999999999999,0.0,457,22.8,27.9,70,13.0
2023-11-13T22:14:00Z,11/13/23 17:14,10929658,0.29100000000000004,0.0,460,22.8,28.0,70,12.0
2023-11-13T22:15:00Z,11/13/23 17:15,10929661,0.16799999999999998,0.0,464,22.8,28.0,70,12.0
2023-11-13T22:16:00Z,11/13/23 17:16,10929664,0.126,0.0,461,22.8,28.1,70,12.0
2023-11-13T22:17:00Z,11/13/23 17:17,10929667,0.096,0.0,464,22.8,28.1,70,12.0
2023-11-13T22:18:00Z,11/13/23 17:18,10929670,0.135,0.0,462,22.8,28.1,70,12.0
2023-11-13T22:19:00Z,11/13/23 17:19,10929673,0.141,0.0,457,22.7,28.1,70,12.0
2023-11-13T22:20:00Z,11/13/23 17:20,10929676,0.16499999999999998,0.0,460,22.7,28.2,70,12.0
2023-11-13T22:21:00Z,11/13/23 17:21,10929679,0.144,0.0,466,22.7,28.2,70,12.0
2023-11-13T22:22:00Z,11/13/23 17:22,10929682,0.098,0.001,462,22.7,28.2,70,11.0
2023-11-13T22:23:00Z,11/13/23 17:23,10929685,0.11100000000000002,0.0,466,22.7,28.2,70,12.0
2023-11-13T22:24:00Z,11/13/23 17:24,10929688,0.11399999999999999,0.0,462,22.7,28.2,70,11.0
2023-11-13T22:25:00Z,11/13/23 17:25,10929691,0.131,0.001,468,22.7,28.3,70,12.0
2023-11-13T22:26:00Z,11/13/23 17:26,10929694,0.10800000000000001,0.0,462,22.7,28.3,70,12.0
2023-11-13T22:27:00Z,11/13/23 17:27,10929697,0.101,0.001,456,22.7,28.4,70,11.0
2023-11-13T22:28:00Z,11/13/23 17:28,10929700,0.147,0.0,460,22.7,28.4,70,12.0
2023-11-13T22:29:00Z,11/13/23 17:29,10929703,0.11100000000000002,0.0,474,22.6,28.4,70,11.0
2023-11-13T22:30:00Z,11/13/23 17:30,10929706,0.09,0.0,460,22.6,28.4,70,12.0
2023-11-13T22:31:00Z,11/13/23 17:31,10929709,0.147,0.0,458,22.6,28.4,70,12.0
2023-11-13T22:32:00Z,11/13/23 17:32,10929712,0.087,0.0,458,22.6,28.4,70,11.0
2023-11-13T22:33:00Z,11/13/23 17:33,10929715,0.077,0.001,466,22.6,28.4,70,11.0
2023-11-13T22:34:00Z,11/13/23 17:34,10929718,0.096,0.0,464,22.6,28.5,70,11.0
2023-11-13T22:35:00Z,11/13/23 17:35,10929721,0.10800000000000001,0.0,460,22.6,28.5,70,12.0
2023-11-13T22:36:00Z,11/13/23 17:36,10929724,0.11699999999999999,0.0,460,22.6,28.6,70,12.0
2023-11-13T22:37:00Z,11/13/23 17:37,10929727,0.129,0.0,460,22.6,28.6,70,11.0
2023-11-13T22:38:00Z,11/13/23 17:38,10929730,0.11699999999999999,0.0,460,22.6,28.6,70,11.0
2023-11-13T22:39:00Z,11/13/23 17:39,10929733,0.11399999999999999,0.0,467,22.6,28.6,70,11.0
2023-11-13T22:40:00Z,11/13/23 17:40,10929736,0.132,0.0,464,22.5,28.6,70,10.0
2023-11-13T22:41:00Z,11/13/23 17:41,10929739,0.11100000000000002,0.0,469,22.5,28.6,70,11.0
2023-11-13T22:42:00Z,11/13/23 17:42,10929742,0.18,0.0,468,22.5,28.6,70,11.0
2023-11-13T22:43:00Z,11/13/23 17:43,10929745,0.10800000000000001,0.0,465,22.5,28.6,70,11.0
2023-11-13T22:44:00Z,11/13/23 17:44,10929748,0.06899999999999999,0.0,469,22.5,28.6,70,11.0
2023-11-13T22:45:00Z,11/13/23 17:45,10929751,0.135,0.0,459,22.5,28.6,70,11.0
2023-11-13T22:46:00Z,11/13/23 17:46,10929754,0.143,0.001,460,22.5,28.7,70,11.0
2023-11-13T22:47:00Z,11/13/23 17:47,10929757,0.129,0.0,456,22.5,28.7,70,10.0
2023-11-13T22:48:00Z,11/13/23 17:48,10929760,0.173,0.001,455,22.5,28.7,70,11.0
2023-11-13T22:49:00Z,11/13/23 17:49,10929763,0.11699999999999999,0.0,461,22.5,28.7,70,11.0
2023-11-13T22:50:00Z,11/13/23 17:50,10929766,0.141,0.0,459,22.5,28.8,70,10.0
2023-11-13T22:51:00Z,11/13/23 17:51,10929769,0.13799999999999998,0.0,469,22.5,28.8,70,10.0
2023-11-13T22:52:00Z,11/13/23 17:52,10929772,0.141,0.0,456,22.5,28.8,70,10.0
2023-11-13T22:53:00Z,11/13/23 17:53,10929775,0.13799999999999998,0.0,465,22.5,28.8,70,10.0
2023-11-13T22:54:00Z,11/13/23 17:54,10929778,0.186,0.0,467,22.5,28.9,70,10.0
2023-11-13T22:55:00Z,11/13/23 17:55,10929781,0.135,0.0,463,22.5,28.9,70,11.0
2023-11-13T22:56:00Z,11/13/23 17:56,10929784,0.132,0.0,461,22.4,28.9,70,11.0
2023-11-13T22:57:00Z,11/13/23 17:57,10929787,0.11399999999999999,0.0,463,22.4,28.9,70,10.0
2023-11-13T22:58:00Z,11/13/23 17:58,10929790,0.185,0.001,468,22.4,28.9,70,10.0
2023-11-13T22:59:00Z,11/13/23 17:59,10929793,0.135,0.0,461,22.4,28.9,70,10.0
2023-11-13T23:00:00Z,11/13/23 18:00,10929796,0.126,0.0,465,22.4,28.9,70,11.0
2023-11-13T23:01:00Z,11/13/23 18:01,10929799,0.147,0.0,465,22.4,29.0,70,11.0
2023-11-13T23:02:00Z,11/13/23 18:02,10929802,0.088,0.002,467,22.4,29.0,70,10.0
2023-11-13T23:03:00Z,11/13/23 18:03,10929805,0.11699999999999999,0.0,469,22.4,29.0,70,11.0
2023-11-13T23:04:00Z,11/13/23 18:04,10929808,0.12,0.0,467,22.4,29.0,70,10.0
2023-11-13T23:05:00Z,11/13/23 18:05,10929811,0.135,0.0,465,22.4,29.1,70,11.0
2023-11-13T23:06:00Z,11/13/23 18:06,10929814,0.10400000000000001,0.001,464,22.4,29.1,70,10.0
2023-11-13T23:07:00Z,11/13/23 18:07,10929817,0.093,0.0,468,22.4,29.1,70,11.0
2023-11-13T23:08:00Z,11/13/23 18:08,10929820,0.093,0.0,465,22.4,29.1,70,11.0
2023-11-13T23:08:59Z,11/13/23 18:08,10929823,0.126,0.0,464,22.4,29.1,70,10.0
2023-11-13T23:09:59Z,11/13/23 18:09,10929826,0.10500000000000001,0.0,459,22.4,29.1,70,11.0
2023-11-13T23:10:59Z,11/13/23 18:10,10929829,0.11100000000000002,0.0,463,22.4,29.2,70,11.0
2023-11-13T23:11:59Z,11/13/23 18:11,10929832,0.192,0.0,460,22.4,29.2,70,11.0
2023-11-13T23:12:59Z,11/13/23 18:12,10929835,0.153,0.0,459,22.4,29.2,70,11.0
2023-11-13T23:13:59Z,11/13/23 18:13,10929838,0.15,0.0,468,22.4,29.2,70,10.0
2023-11-13T23:14:59Z,11/13/23 18:14,10929841,0.16499999999999998,0.0,465,22.4,29.2,70,10.0
2023-11-13T23:15:59Z,11/13/23 18:15,10929844,0.153,0.0,464,22.4,29.3,70,10.0
2023-11-13T23:16:59Z,11/13/23 18:16,10929847,0.177,0.0,467,22.4,29.3,70,10.0
2023-11-13T23:17:59Z,11/13/23 18:17,10929850,0.188,0.001,463,22.3,29.3,70,11.0
2023-11-13T23:18:59Z,11/13/23 18:18,10929853,0.159,0.0,467,22.3,29.4,70,10.0
2023-11-13T23:19:59Z,11/13/23 18:19,10929856,0.141,0.0,469,22.3,29.4,70,10.0
2023-11-13T23:20:59Z,11/13/23 18:20,10929859,0.078,0.0,465,22.3,29.4,70,10.0
2023-11-13T23:21:59Z,11/13/23 18:21,10929862,0.16799999999999998,0.0,455,22.3,29.4,70,10.0
2023-11-13T23:22:59Z,11/13/23 18:22,10929865,0.16799999999999998,0.0,469,22.3,29.4,70,11.0
2023-11-13T23:23:59Z,11/13/23 18:23,10929868,0.22799999999999998,0.0,467,22.3,29.4,70,11.0
2023-11-13T23:24:59Z,11/13/23 18:24,10929871,0.186,0.0,467,22.3,29.4,70,11.0
2023-11-13T23:25:59Z,11/13/23 18:25,10929874,0.315,0.0,476,22.3,29.4,70,11.0
2023-11-13T23:26:59Z,11/13/23 18:26,10929877,0.183,0.0,474,22.3,29.4,70,11.0
2023-11-13T23:27:59Z,11/13/23 18:27,10929880,0.153,0.0,461,22.3,29.5,70,10.0
2023-11-13T23:28:59Z,11/13/23 18:28,10929883,0.156,0.0,469,22.3,29.5,70,11.0
2023-11-13T23:29:59Z,11/13/23 18:29,10929886,0.16499999999999998,0.0,460,22.3,29.5,70,11.0
2023-11-13T23:30:59Z,11/13/23 18:30,10929889,0.177,0.0,470,22.3,29.6,70,10.0
2023-11-13T23:31:59Z,11/13/23 18:31,10929892,0.11699999999999999,0.0,469,22.3,29.6,70,10.0
2023-11-13T23:32:59Z,11/13/23 18:32,10929895,0.11100000000000002,0.0,472,22.3,29.6,70,10.0
2023-11-13T23:33:59Z,11/13/23 18:33,10929898,0.141,0.0,474,22.3,29.6,70,9.0
2023-11-13T23:34:59Z,11/13/23 18:34,10929901,0.153,0.0,473,22.3,29.6,70,9.0
2023-11-13T23:35:59Z,11/13/23 18:35,10929904,0.126,0.0,474,22.3,29.7,70,10.0
2023-11-13T23:36:59Z,11/13/23 18:36,10929907,0.135,0.0,476,22.3,29.7,70,10.0
2023-11-13T23:37:59Z,11/13/23 18:37,10929910,0.123,0.0,464,22.3,29.7,70,10.0
2023-11-13T23:38:59Z,11/13/23 18:38,10929913,0.135,0.0,476,22.3,29.7,70,10.0
2023-11-13T23:39:59Z,11/13/23 18:39,10929916,0.153,0.0,473,22.3,29.8,70,11.0
2023-11-13T23:41:00Z,11/13/23 18:41,10929919,0.159,0.0,469,22.3,29.8,70,11.0
2023-11-13T23:41:59Z,11/13/23 18:41,10929922,0.149,0.001,470,22.3,29.8,70,10.0
2023-11-13T23:42:59Z,11/13/23 18:42,10929925,0.24,0.0,474,22.3,29.8,70,10.0
2023-11-13T23:44:00Z,11/13/23 18:44,10929928,0.21600000000000003,0.0,473,22.3,29.8,70,11.0
2023-11-13T23:44:59Z,11/13/23 18:44,10929931,0.354,0.0,473,22.3,29.8,70,10.0
2023-11-13T23:45:59Z,11/13/23 18:45,10929934,0.16499999999999998,0.0,465,22.3,29.8,70,10.0
2023-11-13T23:47:00Z,11/13/23 18:47,10929937,0.34700000000000003,0.001,469,22.3,29.8,70,11.0
2023-11-13T23:47:59Z,11/13/23 18:47,10929940,0.16499999999999998,0.0,468,22.3,29.9,70,11.0
2023-11-13T23:48:59Z,11/13/23 18:48,10929943,0.181,0.002,469,22.3,29.8,70,11.0
2023-11-13T23:50:00Z,11/13/23 18:50,10929946,0.246,0.0,470,22.3,29.8,70,10.0
2023-11-13T23:50:59Z,11/13/23 18:50,10929949,0.183,0.0,476,22.3,29.8,70,10.0
2023-11-13T23:51:59Z,11/13/23 18:51,10929952,0.261,0.0,478,22.3,29.8,70,10.0
2023-11-13T23:53:00Z,11/13/23 18:53,10929955,0.252,0.0,473,22.3,29.9,70,10.0
2023-11-13T23:53:59Z,11/13/23 18:53,10929958,0.27,0.0,468,22.3,29.9,70,10.0
2023-11-13T23:54:59Z,11/13/23 18:54,10929961,0.209,0.001,465,22.3,29.9,70,10.0
2023-11-13T23:56:00Z,11/13/23 18:56,10929964,0.227,0.001,470,22.3,29.9,70,10.0
2023-11-13T23:56:59Z,11/13/23 18:56,10929967,0.29700000000000004,0.0,474,22.3,29.9,70,10.0
2023-11-13T23:57:59Z,11/13/23 18:57,10929970,0.215,0.001,470,22.3,30.0,70,9.0
2023-11-13T23:58:59Z,11/13/23 18:58,10929973,0.255,0.0,472,22.3,30.0,70,10.0
2023-11-13T23:59:59Z,11/13/23 18:59,10929976,0.333,0.0,474,22.3,30.0,70,11.0
2023-11-14T00:00:59Z,11/13/23 19:00,10929979,0.183,0.0,475,22.3,30.1,70,11.0
2023-11-14T00:01:59Z,11/13/23 19:01,10929982,0.15,0.0,472,22.3,30.1,70,10.0